Tracking 19242 objects as of 15-Aug-2018
HD Live streaming from Space Station
objects crossing your sky now

NOAA 16 DEB

Track NOAA 16 DEB now!
10-day predictions


NORAD ID: 42431
Int'l Code: 2000-055UB
Perigee: 810.3 km
Apogee: 875.9 km
Inclination: 99.0 °
Period: 101.6 minutes
Semi major axis: 7214 km
RCS: Unknown
Launch date: September 21, 2000
Source: United States (US)
Launch site: AIR FORCE WESTERN TEST RANGE (AFWTR)

Note: This is SATELLITE DEBRIS
aabbcc
Your satellite tracking list
Your tracking list is empty




NASA's NSSDC Master Catalog

Two Line Element Set (TLE):
1 42431U 00055UB  18227.05055552  .00000975  00000-0  50347-3 0  9994
2 42431  98.9830 316.3813 0045489 107.7177 252.8970 14.16878319101988
Source of the keplerian elements: AFSPC